Weather History for Lancaster, OH

Change the Weather History Date:

Friday, November 30, 2012

  Actual Average Record
Temperature  
Mean Temperature 44 °F -  
Max Temperature 57 °F 40 °F 69 °F (1998)
Min Temperature 30 °F 28 °F -6 °F (1958)
Degree Days  
Heating Degree Days 22    
Moisture  
Dew Point 29 °F    
Average Humidity 64    
Maximum Humidity 85    
Minimum Humidity 39    
Precipitation  
Precipitation 0.00 in - - ()
Sea Level Pressure  
Sea Level Pressure 30.24 in    
Wind  
Wind Speed 5 mph (South)    
Max Wind Speed 13 mph    
Max Gust Speed 20 mph    
Visibility 10 miles    
Events      
Averages and records for this station are not official NWS values.
T = Trace of Precipitation, MM = Missing Value Source: NWS Daily Summary

Daily Weather History Graph

Daily Weather History Graph

Search for Another Location

Airport:

Trip Planner

Search our weather history database for the weather conditions in past years. The results will help you decide how hot, cold, wet, or windy it might be!

Date:

Astronomy

Nov. 30, 2012 Rise Set
Actual Time 7:32 AM EST 5:06 PM EST
Civil Twilight 7:02 AM EST 5:36 PM EST
Nautical Twilight 6:28 AM EST 6:10 PM EST
Astronomical Twilight 5:56 AM EST 6:42 PM EST
Moon 7:00 PM EST (11/30) 9:03 AM EST (11/30)
Length of Visible Light 10h 34m
Length of Day
9h 34m
Waning Gibbous, 96% of the Moon is Illuminated
Nov 30
Waning Gibbous
Dec 6
Last Quarter
Dec 13
New
Dec 20
First Quarter
Dec 28
Full

Hourly Weather History & Observations

Time (EST) Temp. Windchill Dew Point Humidity Pressure Visibility Wind Dir Wind Speed Gust Speed Precip Events Conditions
12:53 AM 33.1 °F 30.0 °F 25.0 °F 72% 30.28 in 10.0 mi South 3.5 mph - N/A   Overcast
1:53 AM 32.0 °F 27.5 °F 24.1 °F 73% 30.28 in 10.0 mi South 4.6 mph - N/A   Partly Cloudy
2:53 AM 30.0 °F - 23.0 °F 75% 30.28 in 10.0 mi Calm Calm - N/A   Mostly Cloudy
3:53 AM 30.9 °F 27.5 °F 24.1 °F 76% 30.27 in 10.0 mi South 3.5 mph - N/A   Overcast
4:53 AM 30.0 °F 25.2 °F 23.0 °F 75% 30.27 in 10.0 mi South 4.6 mph - N/A   Scattered Clouds
5:53 AM 30.0 °F 25.2 °F 24.1 °F 79% 30.27 in 10.0 mi SSE 4.6 mph - N/A   Mostly Cloudy
6:53 AM 30.9 °F 26.2 °F 24.1 °F 76% 30.27 in 10.0 mi SSE 4.6 mph - N/A   Mostly Cloudy
7:53 AM 30.0 °F 25.2 °F 24.1 °F 79% 30.28 in 10.0 mi SSE 4.6 mph - N/A   Clear
8:53 AM 43.0 °F 39.5 °F 28.9 °F 58% 30.27 in 10.0 mi SSW 5.8 mph - N/A   Clear
9:53 AM 46.9 °F - 28.9 °F 50% 30.29 in 10.0 mi SW 10.4 mph - N/A   Mostly Cloudy
10:53 AM 51.1 °F - 28.9 °F 43% 30.28 in 10.0 mi SW 12.7 mph - N/A   Partly Cloudy
11:53 AM 52.0 °F - 30.0 °F 43% 30.25 in 10.0 mi SW 12.7 mph 19.6 mph N/A   Clear
12:53 PM 55.0 °F - 32.0 °F 42% 30.21 in 10.0 mi SSW 11.5 mph 18.4 mph N/A   Clear
1:53 PM 57.0 °F - 32.0 °F 39% 30.19 in 10.0 mi SSW 9.2 mph - N/A   Clear
2:53 PM 55.9 °F - 32.0 °F 40% 30.19 in 10.0 mi SSW 9.2 mph - N/A   Scattered Clouds
3:53 PM 55.9 °F - 33.1 °F 42% 30.19 in 10.0 mi SSW 6.9 mph - N/A   Partly Cloudy
4:53 PM 53.1 °F - 33.1 °F 47% 30.18 in 10.0 mi South 6.9 mph - N/A   Mostly Cloudy
5:53 PM 46.0 °F - 33.1 °F 61% 30.20 in 10.0 mi Calm Calm - N/A   Overcast
6:53 PM 43.0 °F - 33.1 °F 68% 30.21 in 10.0 mi Calm Calm - N/A   Mostly Cloudy
7:53 PM 34.0 °F - 28.9 °F 82% 30.23 in 10.0 mi Calm Calm - N/A   Clear
8:53 PM 34.0 °F - 28.9 °F 82% 30.23 in 10.0 mi Calm Calm - N/A   Mostly Cloudy
9:53 PM 37.9 °F - 33.1 °F 83% 30.24 in 10.0 mi Calm Calm - N/A   Overcast
10:53 PM 41.0 °F - 34.0 °F 76% 30.24 in 9.0 mi Calm Calm - N/A   Overcast
11:53 PM 35.1 °F - 30.9 °F 85% 30.24 in 9.0 mi Calm Calm - N/A   Clear